Smyrna, TN

7:40 PM CDT on April 20, 2018 (GMT -0500)
Smyrna

Weather History for KMQY - March, 2013

Change the Weather History Date:

Wednesday, March 6, 2013

  Actual Average Record
Temperature  
Mean Temperature 34 °F -  
Max Temperature 39 °F 52 °F 72 °F (2009)
Min Temperature 30 °F 37 °F 8 °F (2015)
Degree Days  
Heating Degree Days 30    
Moisture  
Dew Point 27 °F    
Average Humidity 72    
Maximum Humidity 86    
Minimum Humidity 63    
Precipitation  
Precipitation 0.00 in - - ()
Sea Level Pressure  
Sea Level Pressure 30.23 in    
Wind  
Wind Speed 15 mph (NNW)    
Max Wind Speed 23 mph    
Max Gust Speed 28 mph    
Visibility 10 miles    
Events Rain    
Averages and records for this station are not official NWS values.
T = Trace of Precipitation, MM = Missing Value Source: NWS Daily Summary

Daily Weather History Graph

Daily Weather History Graph

Search for Another Location

Airport or City:

Astronomy

Mar. 06, 2013 Rise Set
Actual Time 6:09 AM CST 5:45 PM CST
Civil Twilight 5:43 AM CST 6:11 PM CST
Nautical Twilight 5:13 AM CST 6:41 PM CST
Astronomical Twilight 4:44 AM CST 7:10 PM CST
Moon 2:09 AM CST (3/6) 12:34 PM CST (3/6)
Length of Visible Light 12h 27m
Length of Day
11h 36m
Waning Crescent, 29% of the Moon is Illuminated
Mar 6
Waning Crescent
Mar 11
New
Mar 19
First Quarter
Mar 27
Full
Apr 2
Last Quarter

Hourly Weather History & Observations

Time (CST) Temp. Windchill Dew Point Humidity Pressure Visibility Wind Dir Wind Speed Gust Speed Precip Events Conditions
12:56 AM 32.9 °F 22.0 °F 24.1 °F 70% 30.07 in 10.0 mi WNW 17.3 mph - 0.00 in   Mostly Cloudy
1:32 AM 33.8 °F 24.8 °F 24.8 °F 70% 30.03 in 10.0 mi NW 12.7 mph - N/A   Overcast
1:56 AM 32.9 °F 23.2 °F 25.2 °F 73% 30.07 in 10.0 mi NW 13.8 mph 23.0 mph 0.00 in Rain Light Rain
2:03 AM 33.8 °F 23.5 °F 24.8 °F 70% 30.03 in 10.0 mi NW 16.1 mph - 0.00 in   Overcast
2:56 AM 34.0 °F 23.8 °F 25.2 °F 70% 30.07 in 10.0 mi NW 16.1 mph - 0.00 in Rain Light Rain
3:56 AM 34.0 °F 24.6 °F 26.1 °F 73% 30.09 in 10.0 mi NW 13.8 mph 19.6 mph 0.00 in Rain Light Rain
4:31 AM 33.8 °F 24.3 °F 26.6 °F 75% 30.07 in 10.0 mi NW 13.8 mph - 0.00 in Rain Light Rain
4:38 AM 33.8 °F 23.9 °F 26.6 °F 75% 30.07 in 10.0 mi NW 15.0 mph - 0.00 in   Overcast
4:56 AM 34.0 °F 22.7 °F 25.2 °F 70% 30.12 in 10.0 mi NNW 19.6 mph 23.0 mph 0.00 in   Overcast
5:56 AM 34.0 °F 21.8 °F 25.2 °F 70% 30.15 in 10.0 mi NW 23.0 mph 27.6 mph 0.00 in   Overcast
6:56 AM 34.0 °F 23.4 °F 25.2 °F 70% 30.19 in 10.0 mi NNW 17.3 mph 24.2 mph 0.00 in   Overcast
8:56 AM 34.9 °F 23.9 °F 26.1 °F 70% 30.26 in 10.0 mi NNW 19.6 mph - N/A   Overcast
9:56 AM 34.9 °F 23.9 °F 27.1 °F 73% 30.28 in 10.0 mi NNW 19.6 mph 26.5 mph N/A   Overcast
10:56 AM 36.9 °F 26.5 °F 28.0 °F 70% 30.29 in 10.0 mi NNW 19.6 mph 26.5 mph N/A   Overcast
11:56 AM 38.8 °F 29.1 °F 29.1 °F 68% 30.30 in 10.0 mi NNW 19.6 mph - N/A   Overcast
12:56 PM 39.9 °F 30.8 °F 29.1 °F 65% 30.29 in 10.0 mi North 18.4 mph - N/A   Overcast
1:06 PM 39.2 °F 31.2 °F 28.4 °F 65% 30.25 in 10.0 mi NNW 13.8 mph - N/A   Overcast
1:56 PM 37.9 °F 28.9 °F 29.1 °F 71% 30.30 in 10.0 mi NNW 16.1 mph - N/A   Overcast
2:48 PM 37.4 °F 28.9 °F 28.4 °F 70% 30.28 in 10.0 mi NNW 13.8 mph - N/A   Overcast
2:56 PM 37.9 °F 28.9 °F 28.0 °F 68% 30.32 in 10.0 mi NNW 16.1 mph - N/A   Overcast
3:56 PM 38.8 °F 30.8 °F 27.1 °F 63% 30.33 in 10.0 mi NNW 13.8 mph - N/A   Mostly Cloudy
4:56 PM 37.9 °F 30.0 °F 27.1 °F 65% 30.34 in 10.0 mi NNW 12.7 mph - N/A   Overcast
5:56 PM 36.0 °F 28.5 °F 26.1 °F 67% 30.35 in 10.0 mi North 10.4 mph - N/A   Overcast
6:56 PM 34.9 °F 29.0 °F 26.1 °F 70% 30.37 in 10.0 mi North 6.9 mph - N/A   Overcast
7:56 PM 32.9 °F 27.5 °F 26.1 °F 76% 30.36 in 10.0 mi NNE 5.8 mph - N/A   Clear
8:56 PM 31.1 °F 27.7 °F 26.1 °F 82% 30.36 in 10.0 mi NNE 3.5 mph - N/A   Clear
9:56 PM 31.1 °F 24.5 °F 26.1 °F 82% 30.36 in 10.0 mi North 6.9 mph - N/A   Clear
10:17 PM 30.2 °F 25.4 °F 26.6 °F 86% 30.32 in 10.0 mi North 4.6 mph - N/A   Mostly Cloudy
10:56 PM 32.9 °F 26.7 °F 27.1 °F 79% 30.36 in 10.0 mi North 6.9 mph - N/A   Overcast
11:56 PM 32.9 °F 25.9 °F 26.1 °F 76% 30.36 in 10.0 mi NNE 8.1 mph - N/A   Overcast